Weather History for Pellston, MI

Change the Weather History Date:

Tuesday, February 5, 2013

  Actual Average Record
Temperature  
Mean Temperature 5 °F -  
Max Temperature 21 °F 24 °F 52 °F (2005)
Min Temperature -11 °F 4 °F -24 °F (2009)
Degree Days  
Heating Degree Days 60    
Moisture  
Dew Point 8 °F    
Average Humidity 78    
Maximum Humidity 86    
Minimum Humidity 71    
Precipitation  
Precipitation 0.01 in - - ()
Sea Level Pressure  
Sea Level Pressure 29.77 in    
Wind  
Wind Speed 6 mph (SW)    
Max Wind Speed 18 mph    
Max Gust Speed 24 mph    
Visibility 6 miles    
Events Fog , Snow    
Averages and records for this station are not official NWS values.
T = Trace of Precipitation, MM = Missing Value Source: NWS Daily Summary

Daily Weather History Graph

Daily Weather History Graph

Search for Another Location

Airport:

Trip Planner

Search our weather history database for the weather conditions in past years. The results will help you decide how hot, cold, wet, or windy it might be!

Date:

Astronomy

Feb. 05, 2013 Rise Set
Actual Time 7:55 AM EST 5:52 PM EST
Civil Twilight 7:23 AM EST 6:23 PM EST
Nautical Twilight 6:48 AM EST 6:58 PM EST
Astronomical Twilight 6:14 AM EST 7:33 PM EST
Moon 3:41 AM EST (2/5) 1:02 PM EST (2/5)
Length of Visible Light 10h 59m
Length of Day
9h 56m
Waning Crescent, 27% of the Moon is Illuminated
Feb 5
Waning Crescent
Feb 10
New
Feb 17
First Quarter
Feb 25
Full
Mar 4
Last Quarter

Hourly Weather History & Observations

Time (EST) Temp. Windchill Dew Point Humidity Pressure Visibility Wind Dir Wind Speed Gust Speed Precip Events Conditions
12:54 AM -2.9 °F - -8.0 °F 79% 29.95 in 10.0 mi Calm Calm - N/A   Overcast
1:54 AM -4.0 °F -12.4 °F -9.9 °F 76% 29.93 in 10.0 mi NW 3.5 mph - N/A   Clear
2:54 AM -9.9 °F - -16.1 °F 74% 29.93 in 10.0 mi Calm Calm - N/A   Clear
3:54 AM -9.9 °F - -16.1 °F 74% 29.91 in 10.0 mi Calm Calm - N/A   Clear
4:54 AM -11.0 °F - -18.0 °F 71% 29.89 in 10.0 mi Calm Calm - N/A   Partly Cloudy
5:54 AM -0.9 °F - -7.1 °F 75% 29.86 in 10.0 mi Calm Calm - N/A   Overcast
6:54 AM 3.9 °F -6.9 °F -0.9 °F 80% 29.84 in 10.0 mi SE 5.8 mph - N/A   Overcast
7:54 AM 7.0 °F -1.7 °F 1.9 °F 80% 29.83 in 10.0 mi SSE 4.6 mph - N/A   Overcast
8:54 AM 10.9 °F 0.2 °F 5.0 °F 77% 29.82 in 10.0 mi SSE 6.9 mph - N/A   Overcast
9:07 AM 12.2 °F 1.7 °F 6.8 °F 79% 29.77 in 1.8 mi SSE 6.9 mph - 0.00 in Snow Light Snow
10:13 AM 14.0 °F 5.1 °F 10.4 °F 86% 29.75 in 0.8 mi SSE 5.8 mph - 0.00 in Snow Light Snow
10:25 AM 15.8 °F 6.1 °F 10.4 °F 79% 29.73 in 1.5 mi SSE 6.9 mph - 0.00 in Snow Light Snow
10:33 AM 15.8 °F 6.1 °F 10.4 °F 79% 29.73 in 3.0 mi South 6.9 mph - 0.00 in Snow Light Snow
10:38 AM 15.8 °F 5.1 °F 10.4 °F 79% 29.73 in 2.5 mi SSE 8.1 mph - 0.00 in Snow Light Snow
10:51 AM 15.8 °F 5.1 °F 12.2 °F 86% 29.72 in 1.5 mi South 8.1 mph - 0.00 in Snow Light Snow
10:54 AM 16.0 °F 5.3 °F 12.0 °F 84% 29.78 in 1.5 mi South 8.1 mph - 0.00 in Snow Light Snow
11:03 AM 17.6 °F 7.3 °F 12.2 °F 79% 29.71 in 1.0 mi South 8.1 mph - 0.00 in Snow Light Snow
11:54 AM 19.0 °F 10.0 °F 12.9 °F 77% 29.75 in 2.0 mi South 6.9 mph - 0.00 in Snow Light Snow
12:20 PM 19.4 °F 9.5 °F 14.0 °F 80% 29.67 in 1.8 mi South 8.1 mph - 0.00 in Snow Light Snow
12:43 PM 21.2 °F 11.7 °F 15.8 °F 80% 29.66 in 2.5 mi South 8.1 mph - 0.00 in Snow Light Snow
12:54 PM 21.0 °F 12.4 °F 15.1 °F 78% 29.70 in 1.8 mi SSW 6.9 mph 16.1 mph 0.00 in Snow Light Snow
1:21 PM 21.2 °F 10.9 °F 15.8 °F 80% 29.64 in 2.5 mi South 9.2 mph - 0.00 in Snow Light Snow
1:26 PM 21.2 °F 9.5 °F 15.8 °F 80% 29.65 in 3.0 mi SSW 11.5 mph 21.9 mph 0.00 in Snow Light Snow
1:33 PM 21.2 °F 10.1 °F 15.8 °F 80% 29.64 in 2.0 mi SSW 10.4 mph 18.4 mph 0.00 in Snow Light Snow
1:41 PM 21.2 °F 9.5 °F 15.8 °F 80% 29.64 in 1.8 mi South 11.5 mph 19.6 mph 0.00 in Snow Light Snow
1:54 PM 21.9 °F 11.0 °F 16.0 °F 78% 29.69 in 1.5 mi SSW 10.4 mph - 0.00 in Snow Light Snow
2:19 PM 21.2 °F 12.6 °F 17.6 °F 86% 29.65 in 0.5 mi WSW 6.9 mph - 0.00 in Fog , Snow Snow
2:26 PM 21.2 °F 12.6 °F 17.6 °F 86% 29.65 in 1.0 mi West 6.9 mph - 0.00 in Snow Light Snow
2:41 PM 21.2 °F 6.4 °F 15.8 °F 80% 29.66 in 1.5 mi NW 18.4 mph 21.9 mph 0.01 in Snow Light Snow
2:54 PM 19.0 °F 5.6 °F 14.0 °F 81% 29.73 in 1.2 mi NW 13.8 mph 23.0 mph 0.01 in Snow Light Snow
3:01 PM 19.4 °F 6.0 °F 12.2 °F 74% 29.67 in 1.2 mi WNW 13.8 mph - 0.00 in Snow Light Snow
3:35 PM 17.6 °F 6.4 °F 12.2 °F 79% 29.69 in 3.0 mi WNW 9.2 mph - 0.00 in Snow Light Snow
3:43 PM 17.6 °F 4.3 °F 12.2 °F 79% 29.70 in 6.0 mi NW 12.7 mph - 0.00 in Snow Light Snow
3:54 PM 18.0 °F 4.8 °F 12.0 °F 78% 29.76 in 10.0 mi WNW 12.7 mph - 0.00 in   Overcast
4:02 PM 17.6 °F 3.7 °F 10.4 °F 73% 29.71 in 10.0 mi WNW 13.8 mph 20.7 mph N/A   Overcast
4:12 PM 17.6 °F 2.7 °F 10.4 °F 73% 29.72 in 10.0 mi WNW 16.1 mph 24.2 mph N/A   Mostly Cloudy
4:54 PM 17.1 °F 5.0 °F 9.0 °F 71% 29.80 in 10.0 mi WNW 10.4 mph - N/A   Partly Cloudy
5:54 PM 12.0 °F 4.1 °F 7.0 °F 80% 29.82 in 10.0 mi West 4.6 mph - N/A   Clear
6:54 PM 12.0 °F 5.9 °F 7.0 °F 80% 29.85 in 8.0 mi West 3.5 mph - N/A   Overcast
7:36 PM 17.6 °F 4.3 °F 12.2 °F 79% 29.82 in 10.0 mi WNW 12.7 mph - N/A   Overcast
7:54 PM 18.0 °F 3.6 °F 12.0 °F 78% 29.88 in 10.0 mi NW 15.0 mph - N/A   Mostly Cloudy
8:54 PM 18.0 °F 4.8 °F 10.0 °F 71% 29.92 in 10.0 mi WNW 12.7 mph - N/A   Partly Cloudy
9:54 PM 16.0 °F 2.3 °F 9.0 °F 74% 29.94 in 10.0 mi NW 12.7 mph - N/A   Clear
10:54 PM 15.1 °F -0.6 °F 10.0 °F 80% 29.97 in 10.0 mi WNW 16.1 mph 21.9 mph N/A   Clear
11:54 PM 12.9 °F -3.9 °F 5.0 °F 71% 30.00 in 10.0 mi NW 17.3 mph - N/A   Clear